Weather History for Tampa, FL

Change the Weather History Date:

Thursday, December 22, 2011

  Actual Average Record
Temperature  
Mean Temperature 73 °F 62 °F  
Max Temperature 80 °F 71 °F 85 °F (1990)
Min Temperature 65 °F 53 °F 30 °F (1901)
Degree Days  
Heating Degree Days 0 5  
Month to date heating degree days 23 88  
Since 1 July heating degree days 38 132  
Cooling Degree Days 8 2  
Month to date cooling degree days 88 60  
Year to date cooling degree days 3958 3590  
Growing Degree Days 22 (Base 50)    
Moisture  
Dew Point 64 °F    
Average Humidity 72    
Maximum Humidity 90    
Minimum Humidity 54    
Precipitation  
Precipitation 0.00 in 0.09 in 1.64 in (1935)
Month to date precipitation 0.04 1.77  
Year to date precipitation 53.07 45.60  
Sea Level Pressure  
Sea Level Pressure 30.11 in    
Wind  
Wind Speed 6 mph (South)    
Max Wind Speed 14 mph    
Max Gust Speed 18 mph    
Visibility 10 miles    
Events      
T = Trace of Precipitation, MM = Missing Value Source: NWS Daily Summary

Daily Weather History Graph

Daily Weather History Graph

Search for Another Location

Airport:

Trip Planner

Search our weather history database for the weather conditions in past years. The results will help you decide how hot, cold, wet, or windy it might be!

Date:

Astronomy

Dec. 22, 2011 Rise Set
Actual Time 7:17 AM EST 5:39 PM EST
Civil Twilight 6:51 AM EST 6:05 PM EST
Nautical Twilight 6:22 AM EST 6:34 PM EST
Astronomical Twilight 5:53 AM EST 7:03 PM EST
Moon 5:01 AM EST (12/22) 3:48 PM EST (12/22)
Length of Visible Light 11h 13m
Length of Day
10h 22m
Waning Crescent, 6% of the Moon is Illuminated
Dec 22
Waning Crescent
Dec 24
New
Jan 1
First Quarter
Jan 9
Full
Jan 16
Last Quarter

Hourly Weather History & Observations

Time (EST) Temp. Heat Index Dew Point Humidity Pressure Visibility Wind Dir Wind Speed Gust Speed Precip Events Conditions
12:53 AM 66.9 °F - 62.1 °F 84% 30.11 in 10.0 mi SSE 4.6 mph - N/A   Clear
1:53 AM 66.9 °F - 62.1 °F 84% 30.10 in 10.0 mi SE 5.8 mph - N/A   Partly Cloudy
2:53 AM 66.9 °F - 61.0 °F 81% 30.10 in 10.0 mi SE 4.6 mph - N/A   Clear
3:53 AM 66.9 °F - 61.0 °F 81% 30.10 in 10.0 mi SSE 5.8 mph - N/A   Clear
4:53 AM 66.0 °F - 61.0 °F 84% 30.12 in 10.0 mi Calm Calm - N/A   Clear
5:53 AM 64.9 °F - 61.0 °F 87% 30.12 in 10.0 mi Calm Calm - N/A   Clear
6:53 AM 64.9 °F - 61.0 °F 87% 30.12 in 10.0 mi ESE 4.6 mph - N/A   Partly Cloudy
7:53 AM 66.9 °F - 63.0 °F 87% 30.13 in 10.0 mi Variable 3.5 mph - N/A   Clear
8:53 AM 69.8 °F - 62.6 °F 78% 30.15 in 10.0 mi SE 8.1 mph - N/A   Clear
9:53 AM 73.0 °F - 64.9 °F 76% 30.17 in 10.0 mi SE 5.8 mph - N/A   Clear
10:53 AM 75.9 °F - 64.9 °F 69% 30.17 in 10.0 mi SE 8.1 mph 17.3 mph N/A   Partly Cloudy
11:53 AM 78.1 °F - 63.0 °F 60% 30.14 in 10.0 mi SSE 8.1 mph - N/A   Scattered Clouds
12:53 PM 80.1 °F 81.5 °F 63.0 °F 56% 30.11 in 10.0 mi SSW 11.5 mph - N/A   Scattered Clouds
1:53 PM 80.1 °F 81.2 °F 62.1 °F 54% 30.08 in 10.0 mi SSW 11.5 mph - N/A   Scattered Clouds
2:53 PM 78.1 °F - 63.0 °F 60% 30.06 in 10.0 mi South 11.5 mph - N/A   Scattered Clouds
3:53 PM 78.1 °F - 64.0 °F 62% 30.06 in 10.0 mi South 11.5 mph - N/A   Partly Cloudy
4:53 PM 77.0 °F - 63.0 °F 62% 30.06 in 10.0 mi SSW 9.2 mph - N/A   Partly Cloudy
5:53 PM 73.9 °F - 64.9 °F 73% 30.09 in 10.0 mi SSW 10.4 mph - N/A   Scattered Clouds
6:53 PM 72.0 °F - 64.9 °F 78% 30.10 in 10.0 mi South 5.8 mph - N/A   Partly Cloudy
7:53 PM 70.0 °F - 66.0 °F 87% 30.12 in 10.0 mi SSW 4.6 mph - N/A   Scattered Clouds
8:53 PM 70.0 °F - 66.0 °F 87% 30.12 in 10.0 mi SSW 4.6 mph - N/A   Mostly Cloudy
9:53 PM 70.0 °F - 66.9 °F 90% 30.13 in 10.0 mi SSW 4.6 mph - N/A   Mostly Cloudy
10:53 PM 69.1 °F - 66.9 °F 93% 30.14 in 10.0 mi South 3.5 mph - N/A   Partly Cloudy
11:53 PM 69.1 °F - 66.0 °F 90% 30.14 in 10.0 mi Calm Calm - N/A   Mostly Cloudy